Date String (YYYY-MM-DD hh:mm:ss) UTC,Instrument flags,absolute air pressure of the measurement (hPa),sample flow rate (lpm),inlet stack bypass flow (lpm),air temperature of the measurement (°C),ambient temperature measured by the external sensor (°C),aerosol sample conditioner tube jacket temperature (°C),OPC LED temperature (°C),internal box temperature (°C),relative humidity of the measurement (%),span deviation,mass concentration of particles derived from Lorenz-Mie calculation of OPC scattering (μg/m³),mass concentration of particles derived from Lorenz-Mie calculation of OPC scattering (μg/m³),mass concentration of particles derived from Lorenz-Mie calculation of OPC scattering (μg/m³)
DateTimeUTC,F1_M11,P_M11,Q1_M11,Q2_M11,T1_M11,T2_M11,T3_M11,T4_M11,T5_M11,U1_M11,ZSPAN_M11,X2_M11,X0_M11,X1_M11
2023-09-18 15:00:00,SystemResetWarning,0831.4,5.01,000.00,028.2,024.5,000.0,036.5,029.4,16.8,0000.0,0002.71,0006.20,0002.29
2023-09-18 15:01:00,SystemResetWarning,0831.4,5.01,000.00,028.1,024.7,000.0,036.5,029.4,17.0,0000.0,0002.70,0005.62,0002.29
2023-09-18 15:02:00,SystemResetWarning,0831.4,5.00,000.00,028.1,025.1,000.0,036.5,029.3,16.3,0000.0,0002.73,0005.63,0002.29
2023-09-18 15:03:00,SystemResetWarning,0831.4,4.99,000.00,028.1,025.4,000.0,036.5,029.4,16.6,0000.0,0002.71,0005.41,0002.28
2023-09-18 15:04:00,SystemResetWarning,0831.4,4.99,000.00,028.1,025.7,000.0,036.5,029.4,15.7,0000.0,0002.69,0005.78,0002.28
2023-09-18 15:05:00,SystemResetWarning,0831.5,5.00,000.00,028.1,026.0,000.0,036.5,029.5,16.2,0000.0,0002.67,0005.80,0002.28
2023-09-18 15:06:00,SystemResetWarning,0831.4,5.01,000.00,028.1,026.2,000.0,036.5,029.6,16.4,0000.0,0002.69,0005.82,0002.29
2023-09-18 15:07:00,SystemResetWarning,0831.5,4.99,000.00,028.1,026.4,000.0,036.5,029.6,16.3,0000.0,0002.68,0005.77,0002.28
2023-09-18 15:08:00,SystemResetWarning,0831.4,4.99,000.00,028.1,026.6,000.0,036.5,029.6,16.6,0000.0,0002.71,0006.52,0002.28
2023-09-18 15:09:00,SystemResetWarning,0831.5,5.00,000.00,028.2,026.7,000.0,036.5,029.7,17.0,0000.0,0002.73,0006.43,0002.28
2023-09-18 15:10:00,SystemResetWarning,0831.5,5.00,000.00,028.2,026.8,000.0,036.5,029.8,15.6,0000.0,0002.72,0006.09,0002.27
2023-09-18 15:11:00,SystemResetWarning,0831.5,5.01,000.00,028.2,027.0,000.0,036.5,029.8,15.5,0000.0,0002.76,0006.47,0002.27
2023-09-18 15:12:00,SystemResetWarning,0831.5,5.01,000.00,028.3,027.1,000.0,036.6,029.9,15.9,0000.0,0002.78,0006.63,0002.26
2023-09-18 15:13:00,SystemResetWarning,0831.5,5.01,000.00,028.3,027.1,000.0,036.6,029.9,15.7,0000.0,0002.75,0007.36,0002.24
2023-09-18 15:14:00,SystemResetWarning,0831.5,5.00,000.00,028.3,027.2,000.0,036.6,030.0,15.3,0000.0,0002.75,0007.99,0002.24
2023-09-18 15:15:00,SystemResetWarning,0831.5,4.99,000.00,028.4,027.3,000.0,036.6,030.0,15.1,0000.0,0002.77,0007.80,0002.24
2023-09-18 15:16:00,SystemResetWarning,0831.5,4.99,000.00,028.4,026.8,000.0,036.6,029.9,14.9,0000.0,0002.79,0007.66,0002.25
2023-09-18 15:17:00,SystemResetWarning,0831.5,5.01,000.00,028.3,025.3,000.0,036.6,029.5,14.8,0000.0,0002.80,0007.66,0002.25
2023-09-18 15:18:00,SystemResetWarning,0831.5,5.01,000.00,028.2,024.8,000.0,036.5,029.5,15.3,0000.0,0002.83,0007.91,0002.27
2023-09-18 15:19:00,SystemResetWarning,0831.5,5.00,000.00,028.1,025.1,000.0,036.5,029.4,14.9,0000.0,0002.87,0007.97,0002.29
2023-09-18 15:20:00,SystemResetWarning,0831.5,5.01,000.00,028.1,025.3,000.0,036.5,029.4,14.9,0000.0,0002.87,0007.56,0002.30
2023-09-18 15:21:00,SystemResetWarning,0831.4,4.99,000.00,028.1,025.6,000.0,036.5,029.5,15.2,0000.0,0002.90,0008.07,0002.31
2023-09-18 15:22:00,SystemResetWarning,0831.4,5.00,000.00,028.1,025.9,000.0,036.5,029.5,15.4,0000.0,0002.91,0007.93,0002.31
2023-09-18 15:23:00,SystemResetWarning,0831.5,5.01,000.00,028.1,026.2,000.0,036.5,029.5,15.1,0000.0,0002.93,0007.85,0002.34
2023-09-18 15:24:00,SystemResetWarning,0831.5,5.00,000.00,028.1,026.4,000.0,036.5,029.6,14.8,0000.0,0002.94,0007.63,0002.36
2023-09-18 15:25:00,SystemResetWarning,0831.5,4.99,000.00,028.2,026.6,000.0,036.5,029.7,14.4,0000.0,0002.92,0007.21,0002.35
2023-09-18 15:26:00,SystemResetWarning,0831.4,5.01,000.00,028.2,026.8,000.0,036.5,029.7,14.2,0000.0,0002.91,0007.15,0002.35
2023-09-18 15:27:00,SystemResetWarning,0831.4,5.00,000.00,028.2,026.9,000.0,036.5,029.8,14.2,0000.0,0002.86,0007.08,0002.35
2023-09-18 15:28:00,SystemResetWarning,0831.4,5.00,000.00,028.3,027.0,000.0,036.6,029.8,14.0,0000.0,0002.86,0007.20,0002.35
2023-09-18 15:29:00,SystemResetWarning,0831.5,4.99,000.00,028.3,027.1,000.0,036.6,029.9,14.7,0000.0,0002.86,0007.07,0002.36
2023-09-18 15:30:00,SystemResetWarning,0831.5,4.98,000.00,028.3,026.5,000.0,036.5,029.8,14.1,0000.0,0002.83,0006.78,0002.34
2023-09-18 15:31:00,SystemResetWarning,0831.4,5.01,000.00,028.2,025.1,000.0,036.5,029.4,13.7,0000.0,0002.80,0006.75,0002.33
2023-09-18 15:32:00,SystemResetWarning,0831.4,5.01,000.00,028.1,024.9,000.0,036.4,029.5,13.6,0000.0,0002.78,0005.71,0002.33
2023-09-18 15:33:00,SystemResetWarning,0831.4,5.00,000.00,028.1,025.2,000.0,036.4,029.4,14.0,0000.0,0002.79,0005.46,0002.34
2023-09-18 15:34:00,SystemResetWarning,0831.5,5.00,000.00,028.1,025.4,000.0,036.4,029.4,13.7,0000.0,0002.81,0005.49,0002.34
2023-09-18 15:35:00,SystemResetWarning,0831.4,5.00,000.00,028.1,025.8,000.0,036.4,029.4,13.8,0000.0,0002.81,0005.52,0002.33
2023-09-18 15:36:00,SystemResetWarning,0831.5,5.00,000.00,028.1,026.0,000.0,036.4,029.5,13.7,0000.0,0002.82,0004.95,0002.33
2023-09-18 15:37:00,SystemResetWarning,0831.4,5.00,000.00,028.1,026.3,000.0,036.4,029.6,14.1,0000.0,0002.82,0004.95,0002.32
2023-09-18 15:38:00,SystemResetWarning,0831.4,5.00,000.00,028.1,026.5,000.0,036.4,029.6,13.6,0000.0,0002.85,0004.98,0002.33
2023-09-18 15:39:00,SystemResetWarning,0831.5,5.00,000.00,028.2,026.7,000.0,036.5,029.7,13.4,0000.0,0002.84,0005.10,0002.33
2023-09-18 15:40:00,SystemResetWarning,0831.4,5.00,000.00,028.2,026.9,000.0,036.5,029.7,13.9,0000.0,0002.86,0005.12,0002.33
2023-09-18 15:41:00,SystemResetWarning,0831.4,4.99,000.00,028.2,026.5,000.0,036.5,029.7,13.6,0000.0,0002.89,0005.06,0002.34
2023-09-18 15:42:00,SystemResetWarning,0831.4,4.98,000.00,028.1,025.1,000.0,036.4,029.3,13.7,0000.0,0002.90,0004.55,0002.35
2023-09-18 15:43:00,SystemResetWarning,0831.4,5.02,000.00,028.0,024.5,000.0,036.3,029.3,18.4,0000.0,0002.94,0004.71,0002.35
2023-09-18 15:44:00,SystemResetWarning,0831.4,5.00,000.00,028.0,024.8,000.0,036.3,029.2,18.8,0000.0,0002.96,0005.08,0002.35
2023-09-18 15:45:00,SystemResetWarning,0831.4,4.99,000.00,027.9,025.1,000.0,036.3,029.2,22.1,0000.0,0002.93,0005.09,0002.34
2023-09-18 15:46:00,SystemResetWarning,0831.4,5.00,000.00,027.9,025.4,000.0,036.3,029.3,22.6,0000.0,0002.90,0004.86,0002.33
2023-09-18 15:47:00,SystemResetWarning,0831.4,5.02,000.00,027.9,025.7,000.0,036.3,029.3,21.5,0000.0,0002.92,0004.84,0002.36
2023-09-18 15:48:00,SystemResetWarning,0831.4,5.00,000.00,027.9,026.0,000.0,036.3,029.4,22.1,0000.0,0002.97,0004.93,0002.37
2023-09-18 15:49:00,SystemResetWarning,0831.5,4.99,000.00,028.0,026.3,000.0,036.3,029.5,22.3,0000.0,0002.98,0005.04,0002.38
2023-09-18 15:50:00,SystemResetWarning,0831.5,5.00,000.00,028.0,026.5,000.0,036.3,029.5,22.9,0000.0,0002.99,0004.88,0002.38
2023-09-18 15:51:00,SystemResetWarning,0831.5,5.00,000.00,028.0,026.7,000.0,036.4,029.6,22.5,0000.0,0002.97,0004.76,0002.39
2023-09-18 15:52:00,SystemResetWarning,0831.4,5.01,000.00,028.1,026.8,000.0,036.4,029.7,22.3,0000.0,0002.94,0004.75,0002.38
2023-09-18 15:53:00,SystemResetWarning,0831.4,4.98,000.00,028.1,026.1,000.0,036.3,029.6,23.0,0000.0,0002.93,0004.89,0002.38
2023-09-18 15:54:00,SystemResetWarning,0831.5,5.00,000.00,028.0,024.6,000.0,036.3,029.2,22.7,0000.0,0002.90,0005.05,0002.39
2023-09-18 15:55:00,SystemResetWarning,0831.4,5.02,000.00,027.9,024.4,000.0,036.2,029.2,22.6,0000.0,0002.89,0005.14,0002.40
2023-09-18 15:56:00,SystemResetWarning,0831.4,5.00,000.00,027.8,024.7,000.0,036.2,029.1,22.6,0000.0,0002.96,0005.31,0002.42
2023-09-18 15:57:00,SystemResetWarning,0831.4,5.00,000.00,027.8,025.0,000.0,036.2,029.1,21.2,0000.0,0002.97,0005.37,0002.43
2023-09-18 15:58:00,SystemResetWarning,0831.4,5.00,000.00,027.8,025.4,000.0,036.2,029.2,20.9,0000.0,0002.98,0005.45,0002.42
2023-09-18 15:59:00,SystemResetWarning,0831.4,5.01,000.00,027.8,025.7,000.0,036.2,029.3,20.4,0000.0,0002.98,0005.46,0002.43
